Home   Weather   Medford   Past weeks

Flag for USA Past Weather in Medford, Oregon, USA — Yesterday and Last 2 Weeks

Now
40 °F

Overcast.


Feels Like: 40 °F
Forecast: 41 / 52 °F
Wind: No wind

Location: Rogue Valley International Airport

Current Time: Dec 4, 2016 at 6:12:44 am

Latest Report: Dec 4, 2016 at 4:53 am


Visibility: 9 mi

Pressure: 30.23 "Hg

Humidity: 97%

Dew Point: 39 °F

Location of MedfordLocation

Past Weather in Medford — Graph

°F

Medford Temperature Yesterday

Maximum temperature yesterday: 49 °F (at 1:53 pm)
Minimum temperature yesterday: 38 °F (at 8:53 pm)
Average temperature yesterday: 43 °F

High & Low Weather Summary for the Past Weeks

 TemperatureHumidityPressure
High60 °F (Nov 19, 12:53 pm)100% (Nov 20, 11:53 pm)30.47 "Hg (Nov 20, 11:53 pm)
Low36 °F (Nov 22, 12:53 am)35% (Nov 25, 11:53 pm)29.49 "Hg (Nov 26, 2:53 pm)
Average45 °F80%30.07 "Hg
* Reported Nov 19 4:53 am — Dec 4 4:53 am, Medford, Weather by CustomWeather, © 2016

Note: Actual official high and low records may vary slightly from our data, if they occured in-between our weather recording intervals... More about our weather records

Advertising

Medford Weather History for the Previous 24 Hours

Scroll right to see more
 ConditionsComfort  
Time TempWeatherWind HumidityBarometerVisibility
4:53 am
Sun, Dec 4
40 °FOvercast.No wind97%30.23 "Hg9 mi
4:02 am40 °FMostly cloudy.No wind93%30.24 "Hg9 mi
3:53 am40 °FMostly cloudy.No wind93%30.27 "Hg10 mi
2:53 am39 °FOvercast.6 mph96%30.29 "Hg8 mi
2:03 am40 °FMostly cloudy.No wind93%30.28 "Hg10 mi
1:53 am39 °FMostly cloudy.3 mph96%30.29 "Hg10 mi
12:53 am36 °FFog.6 mph97%30.30 "Hg5 mi
11:53 pm
Sat, Dec 3
39 °FPassing clouds.No wind93%30.32 "Hg10 mi
11:01 pm39 °FOvercast.5 mph96%30.34 "Hg8 mi
9:53 pm39 °FClear.No wind96%30.37 "Hg10 mi
8:53 pm38 °FClear.No wind97%30.35 "Hg7 mi
7:53 pm41 °FClear.No wind93%30.34 "Hg9 mi
6:53 pm43 °FClear.No wind89%30.35 "Hg10 mi
5:53 pm44 °FClear.5 mph85%30.35 "Hg10 mi
4:53 pm46 °FClear.3 mph79%30.37 "Hg10 mi
3:53 pm47 °FBroken clouds.No wind80%30.37 "Hg10 mi
2:53 pm49 °FBroken clouds.7 mph77%30.37 "Hg10 mi
1:53 pm49 °FBroken clouds.No wind74%30.37 "Hg10 mi
12:53 pm48 °FScattered clouds.No wind77%30.39 "Hg10 mi
11:53 am45 °FOvercast.No wind86%30.43 "Hg10 mi
10:53 am45 °FOvercast.No wind82%30.45 "Hg8 mi
10:00 am44 °FLow clouds.5 mph85%30.43 "Hg10 mi
8:53 am43 °FFog.No wind89%30.43 "Hg6 mi
7:53 am42 °FFog.No wind92%30.41 "Hg6 mi
6:53 am42 °FFog.No wind92%30.41 "Hg6 mi
Weather by CustomWeather, © 2016

See weather overviewHow to use our weather pages